Weather in Masli

Russia / Kurgan Oblast     55°12′22″N   63°48′11″E
temp.,
°C
wind,
m/s
gust,
m/s
humid.,
%
clouds,
%
prec.,
mm/h
press.,
hPa
HPBL,
m
1 august, sun
sun123:00+18s4987100 1.3 1009147
02:00+19ssw2292100 0.3 100748
05:00+18ssw349569 0.6 100872
08:00+20wsw347991 0.0 1008289
11:00+26wnw45565 0.0 1008940
14:00+29w784549 0.0 10072249
17:00+28wnw594297 0.0 10081533
20:00+25w511507 0.0 1008306
2 august, mon
mon223:00+19wnw34635 0.0 100957
02:00+18wnw3971100 0.0 1010174
05:00+16nw4875100 0.0 1012127
08:00+21nw475833 0.0 1012357
11:00+26wnw68445 0.0 10122076
14:00+27nw68342 0.0 10122392
17:00+27nw793437 0.0 10112576
20:00+23nnw355143 0.0 101287
3 august, tue
tue323:00+18n23625 0.0 101420
02:00+17nw226433 0.0 101411
05:00+17w226526 0.0 101516
08:00+22wsw455270 0.0 1015282
11:00+27w464469 0.1 10141311
14:00+30wnw573699 0.0 10132598
17:00+30nw37376 0.0 10121952
20:00+24nne5959100 0.1 1012210
4 august, wed
wed423:00+20ene0190100 1.1 101312
02:00+19sw348781 0.8 101353
05:00+18sw118659 0.8 101411
08:00+22ese11735 0.0 1014167
11:00+28se21505 0.0 1013715
14:00+31se13375 0.0 10131749
17:00+32se23335 0.0 10122012
20:00+27se34555 0.0 101252
5 august, thu
thu523:00+23sse45615 0.0 101267
02:00+22s46625 0.0 101175
05:00+19ssw410805 0.5 1011146
08:00+24wsw246572 0.1 1011209
11:00+29ssw3342100 0.1 1010651
14:00+32sw443467 0.0 10091299
17:00+32wsw223174 0.0 10091351
20:00+28sse1144100 0.0 100811